This demonstration page uses our WeatherBlox Daily Observations layout. Learn more.

Left ArrowRight Arrow

53.62937, 11.41316

Hourly Observations for February 27, 2018

Temp ( °F °C ) Dew Point ( °F °C ) Humidity (%) Winds ( mph kmh ) Pressure ( in mb ) Visibility ( mi km ) Precip ( " mm )
7:50 am 07:50 Mostly Cloudy 16 -9 14 -10 93 93 WNW 2 4 30.24 1024 30 48 N/A
8:20 am 08:20 Partly Cloudy 18 -8 16 -9 93 93 NW 3 6 30.24 1024 30 48 N/A
8:50 am 08:50 Partly Cloudy with Scattered Snow Showers 21 -6 19 -7 93 93 NNW 3 6 30.24 1024 5 8 N/A
9:20 am 09:20 Mostly Cloudy 21 -6 19 -7 93 93 N 6 9 30.24 1024 30 48 N/A
9:50 am 09:50 Mostly Cloudy with Light Snow 23 -5 21 -6 93 93 N 7 11 30.24 1024 30 48 N/A
10:20 am 10:20 Mostly Cloudy with Light Snow 25 -4 21 -6 86 86 N 7 11 30.21 1023 6 9 N/A
10:50 am 10:50 Mostly Cloudy with Light Snow 25 -4 21 -6 86 86 NNE 9 15 30.21 1023 4 7 N/A
11:20 am 11:20 Mostly Cloudy with Light Snow 27 -3 21 -6 80 80 NNE 9 15 30.21 1023 3 5 N/A
12:20 pm 12:20 Partly Cloudy 27 -3 21 -6 80 80 NE 8 13 30.21 1023 30 48 N/A
12:50 pm 12:50 Mostly Cloudy 27 -3 19 -7 74 74 ENE 9 15 30.21 1023 30 48 N/A
1:20 pm 13:20 Partly Cloudy 27 -3 14 -10 59 59 ENE 14 22 30.21 1023 30 48 N/A
1:50 pm 13:50 Mostly Sunny 27 -3 14 -10 59 59 NNE 9 15 30.21 1023 30 48 N/A
2:20 pm 14:20 Mostly Sunny 27 -3 12 -11 54 54 N 13 20 30.21 1023 30 48 N/A
2:50 pm 14:50 Mostly Sunny 25 -4 10 -12 54 54 N 13 20 30.21 1023 30 48 N/A
3:20 pm 15:20 Mostly Sunny 25 -4 14 -10 63 63 NNE 13 20 30.21 1023 30 48 N/A
3:50 pm 15:50 Partly Cloudy 25 -4 16 -9 69 69 NNE 12 19 30.21 1023 30 48 N/A
4:20 pm 16:20 Mostly Cloudy with Light Snow 23 -5 16 -9 74 74 NE 13 20 30.21 1023 30 48 N/A
4:50 pm 16:50 Mostly Cloudy 23 -5 16 -9 74 74 ENE 13 20 30.21 1023 30 48 N/A
5:20 pm 17:20 Mostly Cloudy with Light Snow 23 -5 16 -9 74 74 ENE 12 19 30.21 1023 4 6 N/A
5:50 pm 17:50 Mostly Cloudy with Light Snow 21 -6 18 -8 86 86 ENE 14 22 30.24 1024 3 5 N/A

Powered by AerisWeather